Weather observations for the past three days for
San Carlos Airport
Imperial (Metric)
Date Time (pdt) Wind (mph) Vis. (mi.) Weather Sky Cond. Temperature (ºF) Relative Humidity Wind Chill (°F) Heat Index (°F) Pressure Precipitation (in)
Air Dwpt 6 hour altimeter (in) sea level (mb) 1 hr 3 hr 6 hr
Max. Min.
22 04:35 Calm 0.00 NULL NULL 59 55.4 88% 29.86 0.0
22 04:15 Calm 0.00 NULL NULL 57.2 55.4 94% 29.86 0.0
22 03:55 NW 3 0.00 NULL NULL 59 55.4 88% 29.86 0.0
22 03:35 NW 3 0.00 NULL NULL 59 55.4 88% 29.86 0.0
22 03:15 Calm 0.00 NULL NULL 59 55.4 88% 29.86 0.0
22 02:55 NW 3 0.00 NULL NULL 59 55.4 88% 29.86 0.0
22 02:35 Calm 0.00 NULL NULL 59 55.4 88% 29.86 0.0
22 02:15 Calm 0.00 NULL NULL 59 55.4 88% 29.87 0.0
22 01:55 Calm 9.00 Fair CLR 59 55.4 88% 29.87 0.0
22 01:35 NW 3 9.00 Fair CLR 59 55.4 88% 29.87 0.0
22 01:15 NW 5 8.00 Fair CLR 59 55.4 88% 29.88 0.0
22 00:55 NW 3 9.00 Fair CLR 59 55.4 88% 29.88 0.0
22 00:35 NW 5 10.00 Fair CLR 59 55.4 88% 29.88 0.0
22 00:15 NW 6 10.00 Fair CLR 59 55.4 88% 29.88 0.0
21 23:55 N 3 10.00 Fair CLR 59 55.4 88% 29.88 0.0
21 23:35 NW 5 9.00 Fair CLR 59 55.4 88% 29.88 0.0
21 23:15 NW 6 8.00 Fair CLR 59 55.4 88% 29.89 0.0
21 22:55 NW 7 8.00 Fair CLR 59 55.4 88% 29.89 0.0
21 22:35 NW 6 0.00 NULL NULL 59 55.4 88% 29.89 0.0
21 22:15 NW 7 0.00 Fair CLR 60.8 55.4 83% 29.89 0.0
21 21:55 NW 7 0.00 Fair CLR 60.8 55.4 83% 29.89 0.0
21 21:35 NW 7 0.00 Fair CLR 62.6 55.4 77% 29.89 0.0
21 21:15 N 5 9.00 Fair CLR 62.6 55.4 77% 29.89 0.0
21 20:47 NW 12 10.00 Fair CLR 62.6 53.6 73% 29.88 0.0
21 19:47 NW 12 10.00 Fair CLR 64.4 53.6 68% 29.88 0.0
21 18:47 NW 17 10.00 Fair CLR 66.2 53.6 64% 29.87 0.0
21 17:47 W 20 10.00 Fair CLR 68 55.4 64% 29.88 0.0
21 16:47 NW 20 10.00 Fair CLR 69.8 55.4 60% 29.89 0.0
21 13:47 W 17 G 28 10.00 Fair CLR 69.8 53.6 57% 29.95 0.0
21 12:47 W 20 G 29 10.00 Fair CLR 68 55.4 64% 29.97 0.0
21 06:55 W 9 8.00 Fair CLR 59 53.6 82% 30 0.0
21 06:35 W 13 9.00 Fair CLR 59 53.6 82% 29.99 0.0
21 06:15 W 12 G 16 8.00 Fair CLR 59 53.6 82% 29.99 0.0
21 05:55 W 8 10.00 Fair CLR 59 53.6 82% 29.98 0.0
21 05:35 W 8 0.00 Fair CLR 59 53.6 82% 29.98 0.0
21 05:15 W 12 0.00 Fair CLR 59 53.6 82% 29.98 0.0
21 04:55 W 6 0.00 Fair CLR 59 53.6 82% 29.98 0.0
21 04:35 W 5 0.00 Fair CLR 59 53.6 82% 29.97 0.0
21 04:15 W 7 0.00 Fair CLR 60.8 53.6 77% 29.97 0.0
21 03:55 W 6 0.00 Fair CLR 60.8 55.4 83% 29.97 0.0
21 03:35 W 5 0.00 Fair CLR 60.8 53.6 77% 29.98 0.0
21 03:15 W 3 0.00 Fair CLR 60.8 53.6 77% 29.98 0.0
21 02:55 W 8 0.00 Fair CLR 59 53.6 82% 29.98 0.0
21 02:35 W 9 0.00 Fair CLR 60.8 53.6 77% 29.98 0.0
21 02:15 NW 3 9.00 Fair CLR 59 53.6 82% 29.98 0.0
21 01:55 NW 6 9.00 Fair CLR 60.8 53.6 77% 29.98 0.0
21 01:35 NW 6 10.00 Fair CLR 59 53.6 82% 29.98 0.0
21 01:15 NW 7 9.00 Fair CLR 59 53.6 82% 29.98 0.0
21 00:55 W 9 9.00 Fair CLR 60.8 53.6 77% 29.98 0.0
21 00:35 W 9 9.00 Fair CLR 60.8 53.6 77% 29.98 0.0
21 00:15 W 12 9.00 Fair CLR 62.6 53.6 73% 29.99 0.0
20 23:55 NW 12 10.00 Fair CLR 62.6 53.6 73% 29.98 0.0
20 23:35 W 10 9.00 Fair CLR 62.6 53.6 73% 29.99 0.0
20 23:15 W 9 8.00 Fair CLR 62.6 53.6 73% 29.99 0.0
20 22:55 NW 8 9.00 Fair CLR 62.6 53.6 73% 29.98 0.0
20 22:35 NW 9 8.00 Fair CLR 62.6 53.6 73% 29.98 0.0
20 22:15 NW 12 8.00 Fair CLR 60.8 53.6 77% 29.98 0.0
20 21:55 W 14 G 17 8.00 Fair CLR 60.8 53.6 77% 29.99 0.0
20 21:35 W 8 8.00 Fair CLR 62.6 53.6 73% 29.98 0.0
20 20:47 W 13 10.00 Fair CLR 60.8 53.6 77% 29.97 0.0
20 19:47 W 7 10.00 Fair CLR 66.2 53.6 64% 29.95 0.0
20 18:47 W 17 10.00 Fair CLR 69.8 53.6 57% 29.93 0.0
20 16:47 W 16 10.00 Fair CLR 71.6 53.6 53% 29.93 0.0
20 15:49 W 14 10.00 Fair CLR 75.2 55.4 50% 78 29.93 0.0
20 15:47 W 14 10.00 Fair CLR 75.2 55.4 50% 78 29.93 0.0
20 14:50 W 15 G 22 10.00 Fair CLR 77 59 54% 79 29.94 0.0
20 13:47 W 14 10.00 Fair CLR 78.8 53.6 42% 79 29.94 0.0
20 12:47 W 14 10.00 Fair CLR 78.8 53.6 42% 79 29.95 0.0
20 11:47 N 14 10.00 Fair CLR 73.4 59 61% 29.95 0.0
20 10:47 N 9 10.00 Fair CLR 73.4 55.4 53% 29.96 0.0
20 09:47 N 5 7.00 Fair CLR 71.6 57.2 61% 29.97 0.0
20 08:47 N 3 7.00 Fair with Haze CLR 66.2 57.2 73% 29.97 0.0
20 07:47 NW 5 7.00 Fair with Haze CLR 64.4 55.4 73% 29.96 0.0
20 06:55 N 3 7.00 Fair CLR 62.6 55.4 77% 29.94 0.0
20 06:47 NW 5 7.00 Fair with Haze CLR 62.6 55.4 77% 29.94 0.0
20 06:35 NW 6 8.00 Fair CLR 60.8 55.4 83% 29.94 0.0
20 06:15 NW 3 8.00 Fair CLR 60.8 55.4 83% 29.93 0.0
20 05:55 NW 3 8.00 Fair CLR 60.8 55.4 83% 29.93 0.0
20 05:35 NW 3 0.00 Fair CLR 60.8 55.4 83% 29.93 0.0
20 05:15 NW 5 0.00 Fair CLR 62.6 55.4 77% 29.93 0.0
20 04:55 NW 5 0.00 Fair CLR 62.6 53.6 73% 29.93 0.0
20 04:35 NW 3 0.00 Fair CLR 62.6 53.6 73% 29.92 0.0
20 04:15 NW 3 0.00 Fair CLR 62.6 53.6 73% 29.92 0.0
20 03:55 Calm 0.00 Fair CLR 62.6 55.4 77% 29.93 0.0
20 03:35 NW 3 0.00 Fair CLR 62.6 55.4 77% 29.93 0.0
20 03:15 NW 5 0.00 Fair CLR 62.6 55.4 77% 29.93 0.0
20 02:55 Calm 0.00 Fair CLR 64.4 55.4 73% 29.93 0.0
20 02:35 SW 3 0.00 Fair CLR 64.4 55.4 73% 29.94 0.0
20 02:15 Calm 0.00 Fair CLR 64.4 57.2 78% 29.94 0.0
20 01:55 Calm 0.00 Fair CLR 66.2 57.2 73% 29.94 0.0
20 01:35 Calm 0.00 Fair CLR 66.2 57.2 73% 29.94 0.0
20 01:15 S 3 0.00 Fair CLR 66.2 55.4 68% 29.95 0.0
20 00:55 W 3 0.00 Fair CLR 66.2 53.6 64% 29.95 0.0
20 00:35 Calm 0.00 Fair CLR 64.4 53.6 68% 29.95 0.0
20 00:15 NW 6 0.00 Fair CLR 66.2 53.6 64% 29.95 0.0
19 23:55 NW 8 0.00 Fair CLR 66.2 53.6 64% 29.96 0.0
19 23:35 N 6 0.00 Fair CLR 66.2 55.4 68% 29.96 0.0
19 23:15 NW 6 0.00 Fair CLR 64.4 55.4 73% 29.96 0.0
19 22:55 N 6 0.00 Fair CLR 66.2 55.4 68% 29.96 0.0
19 22:35 N 5 0.00 Fair CLR 68 51.8 56% 29.96 0.0
19 22:15 W 7 9.00 Fair CLR 68 50 53% 29.96 0.0
19 21:55 NW 9 9.00 Fair CLR 68 50 53% 29.96 0.0
19 21:35 W 9 9.00 Fair CLR 69.8 50 50% 29.96 0.0
19 21:15 W 9 9.00 Fair CLR 71.6 50 47% 29.95 0.0
19 20:47 NW 6 10.00 Fair CLR 69.8 53.6 57% 29.94 0.0
19 19:47 N 6 10.00 Fair CLR 77 53.6 44% 78 29.93 0.0
19 18:47 NW 13 10.00 Fair CLR 87.8 46.4 24% 85 29.9 0.0
19 17:50 NW 16 G 31 10.00 Fair CLR 93.2 39.2 15% 89 29.91 0.0
19 16:47 NW 13 10.00 Fair CLR 91.4 48.2 23% 88 29.92 0.0
19 15:47 NW 13 10.00 Fair CLR 89.6 53.6 29% 87 29.93 0.0
19 14:47 N 9 10.00 Fair CLR 91.4 57.2 32% 90 29.95 0.0
19 13:47 N 10 10.00 Fair CLR 87.8 53.6 31% 86 29.97 0.0
19 12:47 N 7 10.00 Fair CLR 80.6 57.2 45% 81 29.98 0.0
19 11:47 N 6 10.00 Fair CLR 75.2 60.8 61% 77 30 0.0
19 10:47 Calm 10.00 Fair CLR 71.6 60.8 69% 30.01 0.0
19 09:47 Calm 10.00 Fair CLR 69.8 59 69% 30.02 0.0
19 08:47 Calm 10.00 Fair CLR 64.4 57.2 78% 30.02 0.0
19 07:47 Calm 10.00 Fair CLR 62.6 55.4 77% 30.02 0.0
19 06:55 Calm 7.00 Fair CLR 59 53.6 82% 30.01 0.0
19 06:47 Calm 10.00 Fair CLR 59 53.6 82% 30.01 0.0
19 06:35 Calm 8.00 Fair CLR 59 53.6 82% 30.01 0.0
19 06:15 Calm 8.00 Fair CLR 57.2 53.6 88% 30 0.0
19 05:55 Calm 9.00 Fair CLR 57.2 53.6 88% 30 0.0
19 05:35 NW 3 0.00 NULL NULL 57.2 53.6 88% 30 0.0
19 05:15 Calm 0.00 NULL NULL 57.2 53.6 88% 30 0.0
19 04:55 Calm 0.00 NULL NULL 57.2 53.6 88% 30 0.0
Date Time (pdt) Wind (mph) Vis. (mi.) Weather Sky Cond. Air Dwpt Max. Min. Relative Humidity Wind Chill (°F) Heat Index (°F) altimeter (in) sea level (mb) 1 hr 3 hr 6 hr
6 hour
Temperature (ºF) Pressure Precipitation (in)